[[{"header":{"parameterUnit":"m.s-1","parameterCategory":1,"la1":30.2991,"la2":30.254,"lo1":-89.0895,"lo2":-89.0444,"dy":0.0017,"dx":0.0017,"nx":28,"ny":28,"refTime":"2024-07-29T03:00:00:Z","depth":0,"parameterNumber":2,"parameterNumberName":"U-component_of_WINDS"},"data":[0,0,0,0,0,0,0,0,0,0,0,0,0,0,0,0,0,0,0,0,0,0,0,0,0,0,0,0,0,0,0,0,0,0,0,0,0,0,0,0,0,0,0,0,0,0,0,0,0,0,0,0,0,0,0,0,0,0,1.1883,1.1885,0,1.2069,1.2071,1.2073,1.2172,1.2172,1.2172,1.2172,1.2364,1.2369,1.2373,0,0,0,0,0,0,0,0,0,0,0,0,0,1.1613,1.1617,1.1882,1.1885,1.1887,1.2069,1.2071,1.2074,1.2172,1.2172,1.2172,1.2172,1.2362,1.2368,1.2374,0,0,0,0,0,0,0,0,0,0,0,0,0,1.1758,1.1619,1.1882,1.1958,1.1967,1.2068,1.2071,1.2074,1.2172,1.2172,1.2172,1.2172,1.236,1.2367,1.2375,1.2415,0,0,1.2397,1.2401,0,0,0,0,0,0,0,0,1.1749,1.1767,1.1944,1.1953,1.1963,1.2097,1.2047,1.2189,1.2172,1.2094,1.2172,1.2172,1.2275,1.2289,1.2324,1.2424,1.2433,1.2398,1.2403,1.2406,1.2408,0,0,0,0,0,0,0,1.1739,1.176,1.1956,1.1947,1.1958,1.1983,1.2004,1.2074,1.2181,1.2101,1.2108,1.2129,1.228,1.2316,1.2329,1.2436,1.2398,1.2404,1.2409,1.2412,1.258,1.258,0,0,0,0,0,0,1.1717,1.1751,1.195,1.1962,1.1854,1.1988,1.2011,1.2054,1.218,1.22,1.2128,1.2133,1.2304,1.232,1.2336,1.2393,1.2406,1.2413,1.2417,1.258,1.258,1.258,0,0,0,0,0,0,1.1711,1.1734,1.1943,1.1859,1.1887,1.1992,1.2039,1.2057,1.2094,1.2201,1.2221,1.2146,1.2305,1.2326,1.2395,1.2401,1.2416,1.2423,1.258,1.258,1.258,1.2506,0,0,0,0,0,0,1.1702,1.1731,1.1747,1.1858,1.1891,1.1998,1.204,1.2061,1.2106,1.2114,1.2223,1.2241,1.2306,1.2384,1.2403,1.2411,1.2429,1.258,1.258,1.258,1.2508,1.2503,1.2499,0,0,0,0,0,1.1692,1.1718,1.1747,1.1771,1.1913,1.1998,1.2017,1.2091,1.2106,1.2124,1.2193,1.2238,1.2397,1.239,1.2412,1.2423,1.258,1.258,1.258,1.251,1.2504,1.2499,0,0,0,0,0,0,1.1605,1.1734,1.1768,1.183,1.1902,1.2015,1.2039,1.2082,1.2152,1.2156,1.2246,1.2269,1.2331,1.2384,1.2374,1.247,1.2493,1.2498,1.2432,1.2428,1.2423,1.2409,1.2435,0,0,0,0,0,1.1593,1.165,1.1761,1.1805,1.184,1.1933,1.1972,1.2023,1.2102,1.2133,1.2207,1.2282,1.2349,1.2391,1.2459,1.2517,1.2542,1.2535,1.253,1.2526,1.2529,1.2564,1.2562,1.258,1.258,1.258,0,0,1.1568,1.1646,1.1677,1.179,1.1852,1.191,1.1958,1.2017,1.2061,1.2142,1.2212,1.2269,1.2359,1.2422,1.2454,1.2469,1.253,1.2526,1.2522,1.2527,1.2564,1.2562,1.2561,1.258,1.258,1.258,0,0,1.1554,1.1618,1.1663,1.1724,1.1818,1.1879,1.189,1.1996,1.2037,1.2109,1.2171,1.2225,1.2339,1.24,1.2446,1.2456,1.25,1.2476,1.2451,1.2485,1.2483,1.2482,1.2486,1.2486,1.2478,1.2478,1.2478,0,1.1511,1.1601,1.168,1.1736,1.1784,1.1861,1.1907,1.1963,1.2073,1.2105,1.2119,1.2264,1.233,1.2409,1.2412,1.2446,1.2462,1.2463,1.2477,1.2477,1.2477,1.2482,1.2483,1.2474,1.2475,1.2475,1.2475,0,1.1545,1.1607,1.1632,1.1737,1.1788,1.1838,1.1925,1.1968,1.2014,1.2075,1.2148,1.2229,1.2315,1.2338,1.2384,1.2424,1.243,1.246,1.2485,1.2471,1.2477,1.2479,1.2469,1.247,1.2472,1.2472,0,0,1.1479,1.1628,1.1636,1.1685,1.1794,1.1844,1.1898,1.1982,1.2017,1.2091,1.2139,1.2234,1.2262,1.2315,1.2369,1.2398,1.2401,1.2424,1.2428,1.2417,1.2451,1.2427,1.2428,1.2431,1.2432,1.2432,1.2443,0,1.148,1.1582,1.1655,1.1728,1.1787,1.186,1.1908,1.1981,1.2039,1.2097,1.2162,1.2228,1.226,1.2292,1.2324,1.2393,1.2409,1.2394,1.2477,1.2479,1.2452,1.2431,1.2407,1.2414,1.2446,1.2447,1.2447,0,1.1494,1.1566,1.1645,1.1749,1.1777,1.1818,1.1902,1.1956,1.204,1.2081,1.2139,1.2195,1.2257,1.2276,1.2363,1.2351,1.239,1.2429,1.2431,1.2442,1.2462,1.2441,1.2418,1.2418,1.2451,1.2451,1.2451,0,1.1439,1.1555,1.1618,1.1658,1.178,1.1808,1.1861,1.1945,1.1991,1.2064,1.2095,1.2174,1.2217,1.2278,1.2354,1.2361,1.2433,1.2459,1.2468,1.2466,1.2479,1.2478,1.2461,1.2504,1.2504,1.2504,1.2504,0,1.1432,1.1477,1.1595,1.1633,1.1687,1.1771,1.1822,1.1881,1.1955,1.2007,1.2076,1.2123,1.222,1.2279,1.2339,1.2402,1.2421,1.2456,1.2471,1.245,1.2445,1.2476,1.2477,1.2505,1.2504,1.2504,1.2504,0,1.1378,1.1458,1.1532,1.1643,1.1671,1.1706,1.1801,1.1842,1.1904,1.1968,1.1988,1.2086,1.216,1.2241,1.2342,1.2382,1.2441,1.2463,1.2412,1.2421,1.2426,1.2424,1.2429,1.2434,1.2472,1.2472,1.2472,0,1.1368,1.1405,1.152,1.1559,1.161,1.1673,1.1721,1.1806,1.1852,1.1951,1.198,1.2058,1.2126,1.2239,1.232,1.2397,1.2422,1.2418,1.2434,1.2411,1.2422,1.2418,1.2423,1.2413,1.2412,1.2411,1.2411,0,1.1342,1.138,1.1446,1.1526,1.1581,1.1649,1.1719,1.1747,1.1846,1.1896,1.1971,1.2023,1.2126,1.2203,1.2291,1.2346,1.2395,1.2405,1.2412,1.239,1.2359,1.2376,1.24,1.2405,1.2405,1.2406,1.2406,1.2406,1.131,1.1347,1.1433,1.1505,1.1567,1.1631,1.1675,1.1743,1.1808,1.1898,1.1944,1.2019,1.2104,1.2227,1.228,1.234,1.2356,1.2365,1.2367,1.2368,1.2362,1.2349,1.2357,1.2357,1.2357,1.2357,1.2358,0,1.1287,1.1347,1.1412,1.1509,1.1565,1.1607,1.1687,1.1731,1.1797,1.1871,1.1936,1.2024,1.2099,1.2186,1.2267,1.2299,1.2323,1.2317,1.2315,1.2327,1.2344,1.233,1.2296,1.2296,1.2296,1.2296,1.2296,1.2296,1.1282,1.1346,1.1395,1.1491,1.1551,1.1626,1.1668,1.1728,1.1788,1.1882,1.1945,1.2001,1.2081,1.2169,1.224,1.2264,1.229,1.2277,1.2307,1.2321,1.2326,1.2331,1.2319,1.2283,1.2283,1.2287,1.2287,1.2286]},{"header":{"parameterUnit":"m.s-1","parameterCategory":1,"la1":30.2991,"la2":30.254,"lo1":-89.0895,"lo2":-89.0444,"dy":0.0017,"dx":0.0017,"nx":28,"ny":28,"refTime":"2024-07-29T03:00:00:Z","depth":0,"parameterNumber":3,"parameterNumberName":"V-component_of_WINDS"},"data":[0,0,0,0,0,0,0,0,0,0,0,0,0,0,0,0,0,0,0,0,0,0,0,0,0,0,0,0,0,0,0,0,0,0,0,0,0,0,0,0,0,0,0,0,0,0,0,0,0,0,0,0,0,0,0,0,0,0,3.6584,3.6585,0,3.6626,3.6626,3.6627,3.6648,3.6649,3.6649,3.6649,3.6687,3.6688,3.6689,0,0,0,0,0,0,0,0,0,0,0,0,0,3.6519,3.652,3.6584,3.6585,3.6585,3.6626,3.6626,3.6627,3.6648,3.6649,3.6649,3.6649,3.6687,3.6688,3.6689,0,0,0,0,0,0,0,0,0,0,0,0,0,3.6552,3.652,3.6584,3.6601,3.6603,3.6625,3.6626,3.6627,3.6648,3.6649,3.6649,3.6649,3.6686,3.6688,3.6689,3.6697,0,0,3.6694,3.6694,0,0,0,0,0,0,0,0,3.655,3.6554,3.6598,3.66,3.6602,3.6632,3.6617,3.665,3.6648,3.6631,3.6649,3.6649,3.6668,3.6671,3.6679,3.6698,3.67,3.6694,3.6695,3.6695,3.6696,0,0,0,0,0,0,0,3.6548,3.6553,3.66,3.6599,3.6601,3.6605,3.661,3.6623,3.6649,3.6633,3.6634,3.6639,3.6669,3.6677,3.668,3.6701,3.6694,3.6695,3.6696,3.6696,3.6727,3.6727,0,0,0,0,0,0,3.6543,3.6551,3.6599,3.6602,3.6576,3.6606,3.6611,3.6622,3.6649,3.6653,3.6639,3.664,3.6675,3.6678,3.6681,3.6691,3.6695,3.6697,3.6697,3.6727,3.6727,3.6727,0,0,0,0,0,0,3.6542,3.6548,3.6597,3.6577,3.6583,3.6607,3.6619,3.6623,3.6631,3.6654,3.6658,3.6643,3.6675,3.6679,3.6693,3.6693,3.6697,3.6699,3.6727,3.6727,3.6727,3.6712,0,0,0,0,0,0,3.654,3.6547,3.6551,3.6577,3.6584,3.661,3.6619,3.6624,3.6634,3.6636,3.6658,3.6662,3.6675,3.669,3.6694,3.6695,3.67,3.6727,3.6727,3.6727,3.6712,3.6711,3.671,0,0,0,0,0,3.6538,3.6545,3.6552,3.6557,3.6591,3.661,3.6614,3.663,3.6634,3.6638,3.6652,3.6661,3.6692,3.6692,3.6696,3.6697,3.6727,3.6727,3.6727,3.6713,3.6711,3.671,0,0,0,0,0,0,3.6518,3.6548,3.6556,3.6572,3.6588,3.6613,3.6619,3.6628,3.6643,3.6644,3.6662,3.6667,3.6679,3.6689,3.6688,3.6705,3.6711,3.6711,3.6698,3.6697,3.6696,3.6693,3.6701,0,0,0,0,0,3.6515,3.653,3.6555,3.6566,3.6574,3.6595,3.6604,3.6615,3.6632,3.6639,3.6654,3.6669,3.6682,3.669,3.6703,3.6714,3.6718,3.6716,3.6715,3.6714,3.6715,3.672,3.672,3.6726,3.6726,3.6726,0,0,3.651,3.6529,3.6537,3.6563,3.6577,3.659,3.6601,3.6614,3.6623,3.664,3.6654,3.6666,3.6683,3.6695,3.6701,3.6704,3.6714,3.6714,3.6713,3.6714,3.672,3.6719,3.6719,3.6726,3.6726,3.6726,0,0,3.6508,3.6524,3.6535,3.6548,3.6569,3.6583,3.6585,3.6609,3.6618,3.6632,3.6645,3.6655,3.6677,3.6689,3.6698,3.6698,3.6707,3.6702,3.6696,3.6701,3.6701,3.67,3.67,3.67,3.6702,3.6702,3.6702,0,3.6499,3.6521,3.6539,3.6552,3.6562,3.6579,3.6589,3.6601,3.6624,3.6631,3.6634,3.6662,3.6675,3.6689,3.6689,3.6696,3.6698,3.67,3.67,3.6699,3.6699,3.6699,3.6699,3.6701,3.6701,3.6701,3.6702,0,3.6508,3.6522,3.6528,3.6552,3.6563,3.6574,3.6593,3.6601,3.6611,3.6624,3.6637,3.6653,3.667,3.6674,3.6683,3.6689,3.669,3.6696,3.6702,3.6697,3.6698,3.6698,3.67,3.67,3.6701,3.6701,0,0,3.6495,3.6528,3.653,3.6541,3.6565,3.6575,3.6586,3.6603,3.661,3.6625,3.6634,3.6652,3.6658,3.6667,3.6678,3.6682,3.6681,3.6688,3.6688,3.6686,3.6688,3.6683,3.6683,3.6686,3.6687,3.6687,3.6686,0,3.6496,3.6519,3.6535,3.6551,3.6564,3.6579,3.6588,3.6603,3.6614,3.6625,3.6637,3.665,3.6656,3.6662,3.6667,3.668,3.6681,3.668,3.6694,3.6694,3.669,3.6683,3.6679,3.6678,3.6686,3.6686,3.6686,0,3.6501,3.6517,3.6534,3.6556,3.6562,3.657,3.6586,3.6597,3.6613,3.6621,3.6632,3.6643,3.6653,3.6657,3.6671,3.667,3.6676,3.6683,3.6684,3.6686,3.669,3.6685,3.6678,3.6678,3.6687,3.6687,3.6687,0,3.649,3.6515,3.6529,3.6537,3.6563,3.6568,3.6578,3.6595,3.6604,3.6617,3.6623,3.6637,3.6645,3.6654,3.6668,3.667,3.668,3.6686,3.6686,3.6686,3.6689,3.6688,3.6682,3.6692,3.6692,3.6692,3.6692,0,3.649,3.65,3.6524,3.6533,3.6544,3.6561,3.657,3.6582,3.6596,3.6605,3.6618,3.6627,3.6644,3.6654,3.6664,3.6674,3.6677,3.6683,3.6686,3.6682,3.6682,3.6687,3.6688,3.6692,3.6692,3.6692,3.6692,0,3.648,3.6497,3.6513,3.6535,3.6541,3.6548,3.6566,3.6574,3.6586,3.6598,3.6601,3.6619,3.6631,3.6646,3.6662,3.6669,3.6678,3.6682,3.6673,3.6675,3.6675,3.6674,3.6672,3.6672,3.6681,3.6681,3.6681,0,3.6479,3.6488,3.6511,3.6519,3.6529,3.6542,3.6551,3.6567,3.6576,3.6594,3.6599,3.6612,3.6624,3.6643,3.6656,3.6669,3.6673,3.6671,3.6675,3.6671,3.6673,3.6673,3.6673,3.667,3.667,3.667,3.667,0,3.6476,3.6483,3.6497,3.6513,3.6524,3.6537,3.655,3.6556,3.6574,3.6583,3.6596,3.6605,3.6622,3.6635,3.6649,3.6658,3.6667,3.6669,3.6669,3.6666,3.6661,3.6663,3.6671,3.6669,3.6669,3.6669,3.6669,3.6669,3.6471,3.6478,3.6496,3.651,3.6522,3.6534,3.6542,3.6555,3.6566,3.6582,3.6591,3.6603,3.6617,3.6637,3.6646,3.6655,3.6658,3.6659,3.666,3.666,3.6659,3.6659,3.6658,3.6658,3.6658,3.6658,3.6658,0,3.6468,3.648,3.6492,3.6511,3.6522,3.653,3.6544,3.6552,3.6564,3.6577,3.6588,3.6602,3.6615,3.6629,3.6641,3.6646,3.665,3.6649,3.6649,3.665,3.6655,3.6653,3.6645,3.6645,3.6645,3.6645,3.6645,3.6645,3.6468,3.6481,3.649,3.6508,3.652,3.6533,3.6541,3.6551,3.6562,3.6578,3.6588,3.6598,3.6611,3.6624,3.6635,3.6639,3.6643,3.664,3.6645,3.6649,3.665,3.6651,3.665,3.6641,3.6641,3.6639,3.6639,3.6639]}]]